Location: Pardubice
(50.0333°N, 15.7833°E)
Time: 18:04:06
(UTC+02:00)

ISS - Visible Passes

Search period start: 18 September 2018 00:00
Search period end: 28 September 2018 00:00
Orbit: 402 x 408 km, 51.6° (Epoch: 19 September)

Date Brightness Start Highest point End Pass type
(mag) Time Alt. Az. Time Alt. Az. Time Alt. Az.
22 Sep -2.0 20:26:53 10° SSW 20:28:27 18° SSE 20:28:27 18° SSE visible
23 Sep -1.8 19:35:57 10° SSE 19:37:38 13° SE 19:39:02 11° ESE visible
23 Sep -1.9 21:10:21 10° SW 21:11:44 23° SW 21:11:44 23° SW visible
24 Sep -3.2 20:18:32 10° SW 20:21:36 38° SSE 20:22:07 35° SE visible
24 Sep -0.6 21:54:42 10° W 21:54:49 11° W 21:54:49 11° W visible
25 Sep -2.5 19:26:55 10° SSW 19:29:41 25° SE 19:32:22 10° E visible
25 Sep -3.0 21:02:36 10° WSW 21:05:02 46° WSW 21:05:02 46° WSW visible
26 Sep -3.8 20:10:34 10° WSW 20:13:50 66° SSE 20:15:09 32° E visible
26 Sep -0.8 21:47:06 10° W 21:47:48 15° W 21:47:48 15° W visible
27 Sep -3.3 19:18:38 10° SW 19:21:48 44° SSE 19:24:58 10° E visible
27 Sep -3.3 20:54:56 10° W 20:57:49 60° WNW 20:57:49 60° WNW visible
